KBDLKSNC

Guest
Details From KBDL - Bradley Intl
To KSNC - CHESTER
Flight Number -
Tags generated
Created
Modified
Stats Distance 34 nm / 64 km
Max Altitude 2,100 ft / 640 m
Waypoints 3
Social Downloads 4
Likes 0
Share VATSIM

Download

Looking for another format? Having issues loading an existing format? Contact us
Advertisement - Login to hide

Notes

Basic altitude profile: - Ascent Rate: 2500ft/min - Ascent Speed: 250kts - Cruise Altitude: 2000ft - Cruise Speed: 100kts - Descent Rate: 1500ft/min - Descent Speed: 250kts Options: - Use NATs: yes - Use PACOTS: yes - Use low airways: yes - Use high airways: no

Route

KBDL WEGOT KSNC

ID Type Via Altitude Latitude Longitude Leg Dist Tot Dist Heading (true) Name
O KBDL APT - 0 ft / 0 m 41.93892˚ -72.68279˚ - 0 nm - Bradley Intl
WEGOT FIX - 2,100 ft / 640 m 41.54038˚ -72.59228˚ 24 nm 24 nm 170° / 170° -
O KSNC APT - 0 ft / 0 m 41.38381˚ -72.50635˚ 10 nm 34 nm 158° / 158° CHESTER

Altitude Profile

Advertisement - Login to hide

KBDL

Details ICAO KBDL (BDL)
Name Bradley Intl
Region United States
Timezone America/New_York (UTC-4.0)
Stats Elevation 172 ft / 52 m (AMSL)
Location 41.938916° -72.682790°
Runways 3
Magnetic Variation 13.817° W

METAR

KBDL 232051Z 30013KT 10SM FEW075 FEW095 FEW250 29/09 A2988 RMK AO2 SLP117 T02890094 55001

Decode

TAF

TAF AMD KBDL 231938Z 2320/2424 32012G22KT P6SM FEW050 FM232300 32007KT P6SM FEW200 FM240900 VRB03KT P6SM SKC FM241700 34006KT P6SM FEW200 FM242000 30006KT P6SM SKC FM242300 22007KT P6SM SKC

Decode

Departure Runways

ID Width Length Bearing (true) Bearing (mag) Surface Threshold Offset Overrun Length
01 100 ft / 30 m 4,273 ft / 1,302 m 359.04° 12.86° Asphalt 479 ft / 146 m 0 ft / 0 m
06 200 ft / 61 m 9,505 ft / 2,897 m 44.27° 58.09° Asphalt 0 ft / 0 m 243 ft / 74 m
15 150 ft / 46 m 6,843 ft / 2,086 m 134.48° 148.30° Asphalt 0 ft / 0 m 997 ft / 304 m
19 100 ft / 30 m 4,273 ft / 1,302 m 179.04° 192.86° Asphalt 0 ft / 0 m 0 ft / 0 m
24 200 ft / 61 m 9,505 ft / 2,897 m 224.29° 238.11° Asphalt 0 ft / 0 m 988 ft / 301 m
33 150 ft / 46 m 6,843 ft / 2,086 m 314.49° 328.31° Asphalt 0 ft / 0 m 95 ft / 29 m

KSNC

Details ICAO KSNC
Name CHESTER
Region United States
Timezone America/New_York (UTC-4.0)
Stats Elevation 416 ft / 127 m (AMSL)
Location 41.383812° -72.506348°
Runways 1
Magnetic Variation 13.760° W

METAR

KSNC 232115Z AUTO 20007G12KT 10SM FEW075 26/15 A2990 RMK AO2

Decode

TAF

Not found

Destination Runways

ID Width Length Bearing (true) Bearing (mag) Surface Threshold Offset Overrun Length
17 50 ft / 15 m 2,569 ft / 783 m 160.92° 174.68° Asphalt 559 ft / 170 m 0 ft / 0 m
35 50 ft / 15 m 2,569 ft / 783 m 340.92° 354.68° Asphalt 0 ft / 0 m 0 ft / 0 m

Popular Alternatives